Helicity
169 173 152 227 200 178 183 178 170 151 158 163 169 164 153 154 169 185 183 187 185 182
196 211 177 275 276 203 185 186 201 205 216 214 209 203 199 187 187 198 197 203 194 188
208 230 244 313 323 283 220 227 241 233 248 268 243 233 244 231 212 220 203 204 206 188
246 244 292 320 341 333 267 255 295 257 287 319 287 270 280 282 278 243 208 215 215 203
311 313 349 348 330 356 327 335 359 335 372 360 327 320 327 328 323 319 280 260 240 226
333 361 364 339 334 375 371 427 443 406 404 360 336 335 341 354 371 344 352 297 270 238
306 352 380 357 332 366 385 483 483 421 379 362 387 349 385 397 420 415 364 341 306 277
236 258 311 328 330 306 359 492 499 492 483 462 416 409 475 521 506 455 439 411 383 376
208 229 230 286 372 450 538 638 650 603 540 466 457 489 619 564 545 486 509 521 457 440
145 211 313 402 496 524 588 617 613 644 600 525 541 565 638 664 662 578 513 545 520 434
155 230 327 422 503 546 570 593 598 598 618 637 584 555 624 639 785 807 609 613 633 430
153 241 322 385 460 529 531 561 568 525 614 719 776 608 774 955 906 974 617 677 608 376
153 191 247 328 422 453 451 510 551 507 493 412 569 477 698 639 656 576 751 575 476 391
162 188 250 316 377 427 485 505 531 553 412 578 532 550 474 630 526 576 472 450 474 438
Wind_Speed
20 19 14 12 10 11 14 11 6 5 11 13 15 17 18 19 21 20 21 23 24 27
23 21 21 15 13 11 11 10 9 8 9 12 14 15 16 19 20 20 21 22 23 26
28 25 23 21 20 17 14 13 13 12 12 14 16 16 17 18 19 21 22 23 25 27
30 30 29 27 25 22 19 17 16 16 15 17 18 18 19 20 18 21 25 25 27 30
36 34 33 31 30 28 25 23 21 20 20 21 21 21 21 22 22 21 24 26 27 29
42 40 39 37 36 33 30 28 26 25 25 24 24 23 23 23 24 24 24 24 26 28
48 45 43 40 39 38 36 32 30 30 29 28 26 24 23 24 26 26 26 25 25 27
53 50 47 43 41 40 40 38 34 32 31 29 28 26 24 23 23 24 24 26 26 29
62 55 52 49 45 41 39 37 36 35 35 33 31 29 26 25 25 24 24 25 28 29
64 62 56 52 48 45 43 39 39 38 36 36 35 30 29 28 28 26 24 24 26 31
60 58 55 52 49 47 46 44 44 42 39 38 37 30 30 28 26 26 25 26 29 30
56 54 52 52 51 49 48 47 47 45 40 38 35 31 27 30 28 23 28 28 28 28
56 55 53 51 49 48 48 48 44 44 42 38 35 35 29 29 32 29 32 31 29 28
57 56 53 50 49 46 45 45 44 42 41 38 35 33 29 29 31 32 33 32 30 30
Wind_Direction
214 204 202 194 191 184 183 184 201 257 297 308 316 321 328 332 334 338 336 337 338 340
222 215 212 218 208 205 206 217 226 240 265 288 300 309 316 319 323 327 329 330 332 334
223 224 227 228 224 229 229 227 229 245 265 276 285 293 300 306 314 315 317 320 320 324
232 233 238 237 236 235 240 237 232 246 254 265 273 278 289 291 298 304 308 311 312 317
244 242 243 243 244 241 242 245 244 253 258 265 265 269 276 280 284 289 298 304 308 313
250 248 246 246 247 245 246 246 245 250 253 253 254 258 267 273 276 285 290 294 299 305
251 250 250 251 249 245 242 243 243 247 252 251 253 257 262 268 275 278 288 293 300 306
259 257 257 253 250 248 245 242 242 248 253 255 253 254 257 263 271 277 284 293 300 310
268 263 259 260 256 255 249 246 247 250 253 250 256 250 247 257 266 271 276 285 296 305
267 266 264 262 259 255 252 252 253 256 257 257 263 247 254 258 267 267 271 285 296 302
271 266 264 262 259 259 255 257 258 256 258 261 261 255 259 261 266 268 268 290 299 302
276 271 266 262 260 261 258 262 262 261 257 257 261 249 263 269 264 271 279 292 300 299
279 274 270 267 264 262 263 264 263 263 259 258 256 249 259 257 261 272 283 289 300 301
281 277 273 270 269 266 265 265 263 260 260 264 252 255 252 257 259 273 279 281 289 298